Tracking 25710 objects as of 7-Jul-2022
HD Live streaming from Space Station
objects crossing your sky now

FENGYUN 1C DEB

Track FENGYUN 1C DEB now!
10-day predictions


NORAD ID: 31989
Int'l Code: 1999-025CPS
Perigee: 844.1 km
Apogee: 1,021.4 km
Inclination: 99.4 °
Period: 103.5 minutes
Semi major axis: 7303 km
RCS: 0.0027 m2 (small)
Launch date: May 10, 1999
Source: People's Republic of China (PRC)
Launch site: Taiyaun Space Center, China (TSC)

Note: This is SATELLITE DEBRIS
aabbcc
Your satellite tracking list
Your tracking list is empty




NASA's NSSDC Master Catalog

Two Line Element Set (TLE):
1 31989U 99025CPS 22187.61373593  .00000178  00000-0  16787-3 0  9990
2 31989  99.3756 229.4948 0121420  91.1271  59.4692 13.90857340763607
Source of the keplerian elements: AFSPC